RH
20 28 42 28 18 16 18 20 21 18 15 17 16 25 24 21 18 18 15 12 13 19 18 18 19 24 33 39 39 44 46 53 65 91 98 98 96 96 93 88 88 92 93 93
25 29 21 17 20 22 21 21 21 17 16 18 17 15 20 19 14 14 13 13 13 11 14 12 22 35 41 48 60 60 61 62 62 60 81 94 94 96 89 91 92 94 91 94
20 18 13 18 20 20 19 24 26 24 19 16 14 17 21 19 15 13 12 10 11 12 14 23 34 47 44 64 63 62 65 71 71 66 59 86 96 98 98 95 91 85 95 92
14 12 9 13 14 16 22 20 22 22 22 29 25 31 20 21 19 16 13 11 13 13 22 26 33 45 62 63 60 60 61 66 68 74 70 85 94 99 98 95 92 91 93 95
14 10 10 11 12 12 16 15 20 26 31 33 28 34 26 20 21 17 14 12 12 15 27 31 38 49 55 55 56 60 65 65 76 82 88 94 95 96 98 98 95 92 96 95
12 8 8 12 14 16 15 16 20 28 34 42 33 38 33 27 22 19 15 13 11 22 31 33 32 52 60 63 60 58 63 68 74 80 85 89 94 95 96 97 94 92 91 95
16 12 10 16 26 24 28 53 63 56 51 50 32 41 35 26 22 19 18 34 27 31 35 38 39 41 52 60 62 56 64 65 78 84 88 89 90 93 92 92 93 92 92 94
28 32 18 15 18 24 34 66 94 89 70 52 38 48 34 24 20 18 18 35 34 37 36 38 38 39 45 57 63 61 62 67 67 84 88 89 91 96 94 92 93 88 89 88
34 26 19 17 18 19 31 52 69 93 81 90 56 39 28 24 25 23 19 33 44 50 47 41 36 39 39 60 66 63 66 67 72 79 79 83 84 91 92 94 95 91 89 91
38 48 24 21 28 26 40 51 81 85 96 89 61 49 50 35 57 63 52 46 47 52 40 32 36 40 46 58 65 71 67 68 74 76 79 76 84 90 94 96 97 93 92 89
34 41 38 29 35 40 40 59 72 84 80 76 90 64 85 91 75 73 64 58 40 36 28 23 29 33 46 52 60 71 73 74 78 79 82 85 84 87 94 96 97 95 92 91
44 58 61 55 38 39 39 74 100 98 93 87 87 87 73 86 76 65 70 43 42 18 17 15 16 30 35 54 65 71 74 73 78 82 84 84 86 86 92 95 94 95 94 92
57 75 90 51 54 44 60 48 47 91 97 95 98 86 52 71 90 63 66 47 20 17 15 17 20 54 60 63 63 68 72 75 78 80 82 83 84 84 89 93 94 96 97 94
70 72 77 84 53 46 83 63 33 57 84 79 71 60 66 74 86 86 60 54 47 16 16 20 54 60 61 61 64 66 75 78 78 82 84 85 84 84 85 88 91 95 96 95
73 92 80 66 59 50 47 39 28 33 39 75 49 51 52 57 78 82 68 55 40 25 30 41 56 62 59 63 66 69 73 74 74 76 80 83 83 82 82 86 92 94 96 95
77 90 88 78 58 56 43 37 33 32 28 27 34 37 35 48 64 72 61 56 62 61 58 56 56 57 61 63 68 72 75 75 75 77 77 74 79 80 83 87 89 95 96 96
98 77 77 74 49 53 60 58 48 46 28 36 49 81 60 62 58 77 77 69 67 63 61 61 61 62 65 69 68 77 76 74 75 75 75 73 76 79 81 79 89 95 97 96
78 81 88 82 72 77 62 66 71 76 88 86 73 71 69 68 67 78 76 78 74 65 63 62 62 64 66 67 71 74 73 76 76 75 76 77 78 80 82 84 90 93 99 99
55 80 96 93 86 56 75 72 91 94 92 94 89 74 77 76 70 86 75 77 76 71 64 61 58 65 67 69 70 73 76 74 75 78 80 78 79 82 84 88 91 92 99 99
60 80 97 96 94 93 87 74 48 64 96 96 96 87 88 82 86 94 88 74 67 63 59 53 49 56 68 71 72 72 77 77 79 80 82 80 82 86 87 89 92 95 99 98
92 91 95 92 96 96 88 67 55 81 95 98 98 98 99 98 99 97 69 66 58 54 53 52 53 60 65 66 70 76 78 81 79 81 83 83 83 88 89 92 95 99 99 98
98 100 98 95 93 95 95 69 91 98 98 99 99 100 100 97 78 68 62 63 59 63 60 59 63 64 64 64 69 76 81 80 80 85 86 86 88 90 88 97 99 99 99 98
94 99 99 99 98 100 100 100 100 100 100 100 99 99 95 80 70 66 67 66 64 67 66 63 67 68 66 67 70 80 82 81 86 88 89 90 92 92 93 99 99 100 99 99
94 97 98 95 96 88 100 98 99 99 100 92 71 72 70 75 72 74 72 73 73 72 69 65 69 72 73 75 75 80 81 85 90 93 94 95 96 95 95 95 100 100 100 100
95 92 89 94 92 78 95 100 98 86 72 72 62 65 72 72 75 71 76 74 74 73 70 67 72 74 75 80 86 87 85 89 92 93 95 96 96 96 96 96 99 98 99 100
80 92 98 99 100 100 100 94 75 69 72 70 64 67 66 74 75 74 80 77 76 81 81 84 82 81 83 82 84 88 88 91 94 94 95 96 96 96 97 96 95 97 96 96
Wind_Speed
7 4 7 13 14 18 16 16 21 19 18 10 16 8 11 7 13 13 15 12 13 6 8 9 9 9 10 9 8 6 6 5 3 3 5 4 7 6 6 7 7 7 9 10
6 7 14 13 14 15 14 16 15 15 11 10 13 18 10 5 14 14 15 9 9 10 6 8 8 8 8 9 9 8 6 4 4 4 4 4 6 6 9 7 7 6 9 10
8 13 16 14 13 12 14 13 9 15 14 12 12 14 8 6 13 21 18 15 9 9 10 8 12 9 9 9 9 7 7 7 7 4 2 3 4 3 3 7 7 9 7 10
9 7 17 15 16 12 17 9 10 12 10 11 2 13 17 6 14 20 18 15 9 7 5 11 10 7 9 8 9 8 7 7 7 9 4 6 6 5 4 6 8 6 7 9
9 15 15 16 13 14 21 20 17 10 8 7 12 6 23 8 11 14 21 18 13 8 11 7 9 12 8 8 7 7 5 5 3 4 6 1 3 3 4 5 8 9 6 10
13 11 12 10 12 15 17 22 17 8 4 10 14 5 21 13 13 13 16 19 21 11 8 12 10 13 8 8 7 8 8 6 7 2 4 2 5 5 6 5 7 6 6 7
11 11 9 6 8 10 17 13 6 9 7 13 9 10 20 11 12 16 18 9 6 17 14 8 10 11 8 9 8 8 7 8 5 2 3 4 5 6 8 8 8 8 7 7
6 9 13 19 13 10 9 4 6 7 6 11 6 11 18 9 14 18 17 8 14 12 10 10 9 9 9 11 9 7 6 6 9 7 6 5 5 3 4 5 7 8 8 9
7 10 15 16 16 10 10 7 3 8 8 8 6 9 11 19 23 17 17 13 13 8 7 9 9 9 11 10 8 7 7 7 6 5 8 7 6 5 6 5 5 7 8 7
6 11 11 12 12 14 5 3 4 3 4 6 5 7 6 15 10 15 9 13 10 6 6 6 8 8 8 9 8 9 8 7 7 8 7 8 10 8 5 4 6 8 8 9
6 6 10 12 5 14 12 8 1 3 6 3 4 3 13 23 21 11 16 14 9 5 4 8 6 8 9 7 8 7 8 8 7 6 7 9 11 12 6 5 5 7 9 11
7 4 9 13 14 14 6 4 3 5 4 2 3 2 14 21 21 13 12 6 10 7 9 7 5 2 7 8 9 8 7 7 6 5 5 8 10 12 10 6 7 6 9 10
5 3 7 6 4 5 7 10 4 3 3 3 4 4 11 17 20 7 4 17 3 5 6 3 6 13 13 8 8 8 6 6 6 6 7 9 10 11 13 10 7 8 7 11
5 2 8 10 13 9 4 18 17 7 3 3 4 11 6 12 16 17 8 16 19 5 5 6 14 11 9 8 10 10 10 8 7 6 6 9 10 12 12 14 9 8 10 12
1 2 7 9 13 15 16 17 10 11 7 5 8 8 5 10 6 15 17 24 19 9 15 13 11 9 10 11 11 10 9 10 10 10 11 11 12 12 14 13 12 9 9 9
0 4 3 8 12 12 12 13 12 7 14 6 8 4 7 9 6 7 11 13 16 19 18 17 15 15 13 13 11 11 12 12 12 10 11 12 12 13 13 14 16 10 11 9
4 3 3 5 7 13 5 7 12 15 6 7 7 10 11 6 11 11 12 15 16 16 17 17 16 15 14 13 13 12 12 12 11 11 12 12 13 15 14 16 16 11 12 8
5 4 2 4 5 2 9 18 11 14 22 20 15 14 12 10 8 12 14 14 16 16 15 13 11 10 10 11 12 12 12 11 12 11 11 12 13 15 15 15 14 15 7 10
5 1 4 1 2 8 18 17 13 12 7 20 13 14 10 14 3 11 14 13 13 15 14 13 10 6 6 8 9 11 12 12 11 12 13 14 15 16 16 15 15 14 4 8
8 4 1 0 2 3 8 17 17 13 2 17 13 12 11 11 5 4 12 12 11 10 10 12 13 9 8 7 8 9 11 11 12 14 14 14 14 15 16 15 15 12 5 9
6 5 3 4 3 5 14 19 17 6 7 17 13 11 9 7 6 8 8 10 10 13 14 16 13 9 8 10 9 8 9 11 14 14 14 14 14 15 15 15 13 3 2 10
2 3 4 4 5 5 13 6 8 4 6 10 9 9 6 8 7 8 12 12 12 10 12 13 10 9 8 9 9 9 11 13 13 14 14 13 13 12 11 14 3 4 7 5
3 2 3 3 2 1 2 1 4 5 5 6 7 8 11 10 11 9 9 9 9 11 10 10 10 10 11 12 12 13 13 13 14 14 13 13 12 10 10 8 3 2 1 4
2 0 2 3 4 8 2 4 6 7 6 8 7 11 11 11 11 10 9 10 10 10 11 11 11 12 12 13 13 12 13 13 13 13 11 9 8 9 10 7 3 3 1 3
3 1 4 2 4 5 8 6 6 7 8 6 8 11 12 11 11 11 10 12 11 12 12 12 12 13 14 13 12 13 14 13 13 11 9 8 6 7 7 9 6 2 4 5
1 1 1 1 4 4 3 5 4 7 9 9 10 11 10 10 10 11 9 10 11 12 12 10 11 11 12 12 12 11 12 12 11 9 7 7 5 5 5 5 7 19 18 23
Wind_Direction
251 149 221 230 218 235 246 251 265 275 285 273 280 237 266 279 296 299 297 316 330 258 193 182 191 143 127 114 107 118 130 164 140 137 160 176 199 196 204 210 205 183 170 173
328 227 235 248 245 251 252 255 264 283 282 275 274 274 248 256 281 280 285 288 291 316 251 181 151 129 111 110 94 65 37 7 172 167 169 162 186 201 201 197 192 186 178 179
304 290 311 316 304 300 280 259 266 259 274 276 283 277 266 242 260 274 275 278 267 273 283 111 116 125 114 100 91 70 34 2 341 287 193 95 72 46 148 189 191 211 183 189
274 328 326 318 312 315 300 322 307 311 290 276 256 283 269 259 241 263 267 270 254 283 44 130 129 104 106 103 82 66 34 348 349 307 193 165 174 161 201 177 173 206 182 176
259 291 288 296 294 302 290 300 291 285 296 299 269 280 285 221 245 241 260 261 253 176 125 81 93 118 109 97 97 75 25 301 312 2 44 340 150 144 145 145 171 187 166 180
273 257 251 259 299 295 289 277 284 270 267 266 264 230 277 272 263 246 258 255 249 157 99 137 124 116 110 93 76 64 40 343 287 24 357 31 232 169 156 166 190 200 184 184
309 297 310 20 347 332 1 354 305 269 241 250 241 244 243 285 275 264 271 273 125 136 135 125 111 115 116 109 87 70 31 6 344 31 313 298 293 206 189 187 197 193 191 188
338 330 357 343 341 315 330 45 267 261 248 255 261 242 255 262 259 256 269 175 122 126 118 133 114 102 99 90 90 85 56 46 24 340 300 296 281 247 240 218 204 205 197 190
310 279 321 322 333 332 307 290 169 297 241 255 255 280 308 280 256 252 230 152 127 123 139 133 126 115 95 102 119 116 76 46 25 7 1 321 297 262 259 251 197 208 189 170
332 312 316 320 332 318 290 326 356 252 278 231 242 245 256 319 6 15 41 117 106 109 127 109 101 107 110 123 119 106 97 77 36 6 354 340 321 290 251 256 239 205 184 181
286 278 308 319 298 296 334 289 227 294 261 281 328 282 359 2 323 39 4 316 81 138 98 70 94 118 128 134 120 107 85 71 35 11 345 340 329 311 259 249 252 223 185 180
15 283 293 313 306 314 297 21 36 241 333 322 204 246 10 11 350 84 329 346 38 343 62 38 65 183 176 94 91 90 79 67 35 12 352 337 324 320 291 249 246 253 198 183
349 335 313 313 12 8 0 306 235 238 244 247 326 324 5 23 345 328 117 293 58 99 97 56 29 69 75 77 76 75 69 56 31 11 350 338 330 325 317 278 251 231 217 187
28 269 271 283 280 283 298 288 278 191 212 286 260 300 341 13 356 329 315 348 324 13 35 61 80 72 67 63 58 50 48 32 9 354 349 336 327 326 314 303 266 245 225 183
135 282 314 309 307 302 298 299 313 304 260 165 277 286 19 19 360 309 332 311 306 356 26 66 61 59 48 46 45 41 29 12 357 355 347 333 324 320 317 310 279 246 222 191
268 270 281 307 294 280 316 310 324 306 301 246 247 261 101 74 222 229 277 336 33 43 41 39 31 34 39 34 28 21 10 358 352 348 338 330 321 323 322 312 306 253 217 200
255 295 319 260 314 321 317 21 339 333 9 10 39 20 68 109 30 40 18 21 24 23 29 29 18 21 26 25 18 9 1 345 340 341 334 337 332 320 322 318 318 258 215 170
284 324 245 275 305 285 60 25 351 357 31 21 42 24 360 348 28 48 27 19 14 12 14 20 13 13 22 15 10 357 353 345 338 331 339 333 327 318 315 315 305 300 180 157
23 351 294 153 292 265 33 344 330 345 16 12 353 353 352 334 290 45 19 26 20 6 3 359 355 6 22 24 9 356 348 343 333 335 330 328 322 313 308 306 303 302 180 147
337 122 296 299 243 40 338 316 325 314 165 1 329 342 346 358 62 18 13 12 13 5 353 358 356 358 20 11 19 0 344 329 336 327 323 323 315 304 301 298 294 286 240 137
338 348 334 330 328 80 347 333 333 42 321 331 326 340 350 21 22 15 356 11 7 19 9 8 360 358 8 10 357 347 334 336 326 319 317 321 313 304 296 291 278 210 155 133
343 349 328 349 19 356 3 357 44 296 298 313 321 358 21 29 27 21 24 15 16 10 11 5 353 352 354 356 349 349 345 333 325 319 319 323 315 308 305 298 244 152 135 194
19 5 327 335 35 40 327 343 341 304 303 327 346 21 13 24 21 19 14 8 6 13 6 354 351 352 354 354 357 350 340 334 326 324 324 329 321 325 320 312 46 48 178 227
86 107 245 335 50 4 78 57 5 339 333 335 4 17 19 14 22 11 13 3 4 4 357 355 353 352 351 355 352 346 338 332 330 328 330 328 328 346 352 337 347 93 121 132
172 204 299 263 24 346 39 11 336 333 358 358 19 25 23 12 19 7 8 2 0 356 357 1 357 355 350 347 346 344 337 337 337 330 336 336 343 356 359 19 353 37 68 90
330 146 112 301 22 291 320 275 303 8 20 9 26 23 27 23 15 9 13 9 3 357 350 7 356 352 347 344 341 347 343 341 336 337 351 350 355 6 9 14 35 52 76 81